Probability
0 0 0 0 0 0 0 0 0 0 0 0 0 0 0 0 0 0 0 0 0 6 0 0 3 0 0 0 0 3 0 0 0 0 0 0 0 0 0 0 0 0 0
0 0 0 0 0 0 0 0 0 0 0 0 0 0 0 0 0 0 0 0 0 0 3 3 3 0 0 0 0 0 0 0 0 0 0 0 0 0 0 0 0 0 0
0 0 0 0 0 0 0 0 0 0 0 0 0 0 0 0 0 0 0 0 0 0 0 3 3 0 0 3 0 0 0 0 0 0 0 0 0 0 0 0 0 0 0
0 0 0 0 0 0 0 0 0 0 0 0 0 0 0 0 0 0 0 0 0 0 0 0 3 3 0 0 3 3 0 0 0 0 0 0 0 0 0 0 0 0 0
0 0 0 0 0 0 0 0 0 0 0 0 0 0 0 0 0 0 0 0 0 0 0 0 0 0 0 0 0 3 0 0 0 0 0 0 0 0 0 0 0 0 0
0 0 0 0 0 0 0 0 0 0 0 0 0 0 0 0 0 0 0 0 0 0 0 0 0 0 0 0 0 0 3 3 3 3 0 0 3 0 0 0 0 0 0
0 0 0 0 0 0 0 0 0 0 0 0 0 0 0 0 0 0 0 0 0 0 0 0 0 0 0 0 0 0 3 3 3 3 3 3 0 0 0 0 0 0 0
0 0 0 0 0 0 0 0 0 0 0 0 0 0 0 0 0 0 0 0 0 0 0 0 0 0 0 0 0 0 0 3 3 3 3 3 3 0 0 0 0 0 0
0 0 0 0 0 0 0 0 0 0 0 0 0 0 0 0 0 0 0 0 0 0 0 0 0 0 0 0 0 0 0 0 0 0 3 3 0 0 0 0 0 0 0
0 0 0 0 0 0 0 0 0 0 0 0 0 0 0 0 0 0 0 0 0 0 0 0 0 0 0 0 0 0 0 0 0 0 0 0 0 0 0 0 0 0 0
0 0 0 0 0 0 0 0 0 0 0 0 0 0 0 0 0 0 0 0 0 0 0 0 0 0 0 0 0 0 0 0 0 0 0 0 0 0 0 0 0 0 0
0 0 0 0 0 0 0 0 0 0 0 0 0 0 0 0 0 0 0 0 0 0 0 0 0 0 0 0 0 0 0 0 0 0 0 0 0 0 0 0 0 0 0
0 0 0 0 0 0 0 0 0 0 0 0 0 0 0 0 0 0 0 0 0 0 0 0 0 0 0 0 0 0 0 0 0 0 0 0 0 0 0 0 0 0 0
0 0 0 0 0 0 0 0 0 0 0 0 0 0 0 0 0 0 0 0 0 0 0 0 0 0 0 0 0 0 0 0 0 0 0 0 0 0 0 0 0 0 0
0 0 0 0 0 0 0 0 0 0 0 0 0 0 0 0 0 0 0 0 0 0 0 0 0 0 0 0 0 0 0 0 0 0 0 0 0 0 0 0 0 0 0
0 0 0 0 0 0 0 0 0 0 0 0 0 0 0 0 0 0 0 0 0 0 0 0 0 0 0 0 0 0 0 0 0 0 0 0 0 0 0 0 0 0 0
0 0 0 0 0 0 0 0 0 0 0 0 0 0 0 0 0 0 0 0 0 0 0 0 0 0 0 0 0 0 0 0 0 0 0 0 0 0 0 0 0 0 0
0 0 0 0 0 0 0 0 0 0 0 0 0 0 0 0 0 0 0 0 0 0 0 0 0 0 0 0 0 0 0 0 0 0 0 0 0 0 0 0 0 0 0
0 0 0 0 0 0 0 0 0 0 0 0 0 0 0 0 0 0 0 0 0 0 0 0 0 0 0 0 0 0 0 0 0 0 0 0 0 0 0 0 0 0 0
0 0 0 0 0 0 0 0 0 0 0 0 0 0 0 0 0 0 0 0 0 0 0 0 0 0 0 0 0 0 0 0 0 0 0 0 0 0 0 0 0 0 0
0 0 0 0 0 0 0 0 0 0 0 0 0 0 0 0 0 0 0 0 0 0 0 0 0 0 0 0 0 0 0 0 0 0 0 0 0 0 0 0 0 0 0
0 0 0 0 0 0 0 0 0 0 0 0 0 0 0 0 0 0 0 0 0 0 0 0 0 0 0 0 0 0 0 0 0 0 0 0 0 0 0 0 0 0 0
0 0 0 0 0 0 0 0 0 0 0 0 0 0 0 0 0 0 0 0 0 0 0 0 0 0 0 0 0 0 0 0 0 0 0 0 0 0 0 0 0 0 0
0 0 0 0 0 0 0 0 0 0 0 0 0 0 0 0 0 0 0 0 0 0 0 0 0 0 0 0 0 0 0 0 0 0 0 0 0 0 0 0 0 0 0
0 0 0 0 0 0 0 0 0 0 0 0 0 0 0 0 0 0 0 0 0 0 0 0 0 0 0 0 0 0 0 0 0 0 0 0 0 0 0 0 0 0 0
0 0 0 0 0 0 0 0 0 0 0 0 0 0 0 0 0 0 0 0 0 0 0 0 0 0 0 0 0 0 0 0 0 0 0 0 0 0 0 0 0 0 0
Height
5803 5805 5808 5810 5813 5815 5817 5820 5822 5824 5826 5828 5829 5831 5833 5834 5836 5837 5838 5839 5840 5841 5841 5842 5842 5843 5843 5843 5843 5843 5843 5843 5843 5842 5842 5841 5840 5840 5839 5838 5837 5836 5835
5794 5797 5799 5802 5805 5808 5810 5812 5815 5817 5820 5822 5824 5826 5828 5829 5831 5832 5834 5835 5836 5837 5837 5838 5839 5839 5840 5840 5840 5841 5841 5841 5841 5840 5840 5839 5839 5838 5837 5836 5835 5835 5834
5784 5787 5791 5794 5796 5799 5802 5805 5808 5810 5813 5815 5818 5820 5822 5824 5825 5827 5829 5830 5831 5832 5833 5834 5834 5835 5836 5836 5837 5837 5838 5838 5838 5838 5838 5837 5837 5836 5835 5835 5834 5833 5832
5773 5777 5781 5785 5788 5791 5794 5797 5800 5803 5805 5808 5811 5813 5815 5818 5819 5821 5823 5824 5826 5827 5828 5829 5830 5831 5832 5832 5833 5834 5834 5835 5835 5835 5835 5835 5834 5833 5833 5832 5832 5831 5830
5762 5766 5771 5775 5778 5782 5785 5788 5791 5794 5797 5800 5803 5806 5808 5811 5813 5815 5816 5818 5820 5821 5822 5823 5824 5826 5827 5828 5829 5829 5830 5831 5831 5831 5831 5831 5831 5831 5830 5830 5829 5828 5828
5751 5755 5759 5764 5768 5772 5776 5779 5782 5785 5789 5792 5795 5798 5801 5803 5805 5807 5809 5811 5813 5815 5816 5817 5819 5820 5821 5823 5824 5825 5825 5826 5827 5827 5828 5828 5828 5827 5827 5826 5826 5825 5824
5739 5743 5748 5752 5757 5761 5766 5769 5772 5775 5779 5782 5786 5789 5792 5794 5797 5800 5802 5804 5806 5807 5809 5811 5812 5814 5815 5817 5818 5819 5820 5821 5822 5822 5823 5823 5824 5824 5823 5823 5822 5822 5821
5727 5731 5735 5740 5745 5750 5754 5758 5762 5765 5769 5772 5776 5779 5782 5786 5788 5791 5793 5795 5798 5800 5802 5804 5806 5807 5809 5810 5812 5813 5814 5815 5816 5817 5818 5819 5819 5819 5819 5819 5818 5818 5817
5714 5719 5723 5728 5733 5737 5742 5746 5750 5754 5758 5761 5765 5769 5772 5775 5778 5782 5784 5787 5789 5792 5794 5796 5798 5800 5802 5804 5805 5807 5808 5809 5810 5812 5813 5813 5814 5814 5814 5814 5813 5813 5812
5702 5706 5711 5715 5720 5725 5730 5734 5738 5742 5746 5750 5753 5757 5761 5764 5768 5772 5775 5778 5780 5783 5785 5788 5790 5792 5794 5796 5798 5800 5801 5803 5804 5805 5806 5807 5808 5809 5809 5808 5808 5808 5807
5689 5693 5698 5703 5708 5712 5717 5721 5725 5730 5734 5738 5742 5746 5749 5753 5756 5760 5764 5768 5771 5773 5776 5779 5781 5783 5786 5788 5790 5792 5794 5796 5797 5799 5800 5801 5802 5802 5803 5803 5803 5802 5802
5676 5680 5685 5690 5695 5699 5704 5708 5712 5717 5721 5726 5730 5734 5738 5742 5746 5749 5753 5756 5760 5763 5766 5769 5772 5774 5777 5779 5781 5784 5786 5788 5790 5791 5793 5794 5795 5795 5796 5796 5796 5796 5796
5664 5669 5673 5677 5682 5686 5691 5695 5699 5704 5708 5713 5717 5722 5726 5730 5734 5738 5741 5745 5748 5752 5755 5759 5761 5764 5767 5770 5772 5775 5777 5779 5781 5783 5785 5786 5787 5788 5789 5789 5789 5789 5789
5652 5656 5660 5664 5668 5673 5677 5681 5686 5690 5695 5699 5704 5709 5713 5718 5722 5726 5729 5733 5737 5741 5744 5748 5751 5754 5757 5760 5763 5765 5768 5770 5772 5774 5776 5778 5779 5780 5781 5781 5782 5782 5781
5639 5643 5647 5651 5655 5659 5663 5668 5672 5676 5681 5686 5691 5696 5700 5705 5709 5713 5717 5721 5725 5729 5733 5737 5741 5744 5746 5749 5752 5755 5758 5760 5762 5765 5767 5769 5770 5772 5772 5773 5773 5774 5773
5625 5629 5634 5637 5641 5645 5649 5653 5658 5663 5667 5672 5677 5682 5687 5691 5696 5701 5705 5709 5713 5718 5722 5726 5730 5733 5735 5738 5741 5744 5747 5750 5752 5755 5757 5759 5761 5762 5763 5764 5764 5764 5765
5611 5615 5619 5623 5627 5631 5635 5639 5644 5648 5653 5658 5663 5668 5674 5678 5683 5688 5693 5697 5701 5706 5710 5715 5718 5721 5724 5727 5730 5733 5736 5739 5741 5744 5746 5748 5750 5752 5753 5754 5755 5755 5755
5597 5601 5604 5608 5612 5616 5620 5625 5629 5634 5639 5644 5649 5655 5660 5665 5670 5675 5680 5685 5689 5694 5698 5703 5706 5710 5713 5716 5719 5721 5724 5727 5730 5733 5735 5737 5739 5741 5743 5743 5744 5745 5745
5583 5586 5590 5594 5598 5602 5606 5610 5615 5620 5625 5630 5635 5641 5646 5651 5657 5662 5667 5672 5677 5681 5686 5690 5694 5698 5701 5703 5706 5709 5712 5715 5718 5721 5724 5726 5728 5730 5731 5732 5733 5734 5734
5569 5572 5576 5579 5583 5588 5592 5596 5600 5606 5611 5616 5621 5626 5632 5637 5643 5648 5653 5658 5663 5668 5673 5677 5681 5685 5688 5691 5693 5697 5700 5703 5706 5709 5712 5714 5716 5718 5720 5721 5722 5723 5723
5554 5558 5561 5565 5568 5573 5577 5581 5586 5591 5597 5602 5607 5613 5618 5624 5629 5634 5639 5645 5649 5654 5659 5664 5668 5672 5675 5678 5682 5685 5688 5691 5694 5696 5699 5702 5704 5707 5708 5709 5710 5711 5712
5540 5544 5547 5550 5554 5558 5563 5567 5572 5577 5582 5588 5593 5599 5604 5610 5615 5620 5625 5630 5635 5640 5646 5650 5655 5659 5663 5666 5669 5672 5675 5678 5682 5686 5686 5689 5691 5693 5696 5697 5698 5699 5700
5527 5530 5533 5537 5540 5545 5549 5553 5558 5562 5568 5573 5579 5585 5590 5596 5601 5606 5611 5616 5621 5626 5631 5637 5641 5646 5650 5654 5657 5659 5662 5665 5669 5671 5673 5676 5678 5680 5683 5684 5686 5687 5687
5514 5517 5520 5523 5527 5531 5535 5540 5543 5549 5554 5559 5565 5570 5576 5582 5586 5591 5596 5601 5606 5612 5617 5622 5628 5633 5636 5638 5642 5645 5648 5652 5655 5658 5659 5663 5665 5667 5669 5671 5672 5673 5674
5501 5504 5507 5510 5514 5518 5522 5526 5530 5535 5540 5545 5550 5556 5561 5566 5572 5576 5581 5587 5592 5597 5601 5606 5611 5616 5620 5624 5627 5630 5634 5637 5641 5644 5646 5649 5652 5654 5656 5658 5659 5660 5660
5489 5491 5495 5497 5501 5505 5509 5513 5516 5521 5527 5532 5536 5541 5547 5552 5556 5561 5565 5571 5576 5582 5586 5591 5595 5600 5604 5609 5612 5616 5620 5623 5626 5629 5632 5635 5638 5639 5641 5644 5645 5645 5646
Wind_Speed
36 35 35 33 32 31 31 30 29 27 26 25 24 23 22 22 21 20 19 18 17 17 16 15 15 14 13 12 11 10 10 9 8 8 7 7 7 7 7 6 6 7 7
38 37 36 35 34 33 32 32 31 30 29 28 27 26 24 24 23 22 21 20 19 19 18 17 17 16 15 14 13 12 11 10 10 9 8 8 8 8 8 8 7 7 7
40 39 38 37 36 35 34 34 33 33 32 31 29 28 27 26 25 24 24 23 22 21 20 19 18 18 18 16 15 14 12 11 11 10 10 10 9 9 9 9 9 8 8
43 42 41 39 39 38 37 36 36 35 34 33 32 31 30 29 28 27 26 25 24 23 23 21 20 20 19 18 17 16 15 14 13 12 12 11 11 10 10 10 10 10 10
45 45 43 42 41 40 39 39 39 38 37 36 35 33 32 31 30 29 28 27 27 25 25 24 23 21 21 20 19 18 17 16 15 14 13 13 13 13 12 12 12 12 12
47 47 46 45 43 43 42 41 40 40 40 38 37 36 35 34 32 31 30 29 29 28 26 26 24 23 22 22 21 21 20 19 17 16 15 15 15 14 14 14 14 14 14
48 49 48 48 46 45 44 43 42 41 41 40 40 39 38 36 35 34 33 32 31 30 29 27 26 25 24 23 23 23 22 21 20 19 18 17 17 16 16 15 15 15 15
49 50 50 49 49 48 48 47 45 44 43 42 42 40 40 39 39 37 35 34 34 33 31 30 28 27 26 25 24 24 24 24 23 22 21 20 19 18 18 18 18 17 17
49 50 51 51 50 50 50 49 48 47 46 45 44 43 43 42 41 40 38 36 35 34 34 33 31 30 29 27 27 26 26 25 25 24 23 22 21 20 20 20 20 19 19
50 51 52 52 51 51 51 50 50 49 48 47 46 45 44 43 42 41 40 39 38 37 36 35 33 32 32 30 29 28 27 27 26 26 25 24 23 23 22 22 22 22 22
50 51 52 52 52 52 52 51 51 50 50 48 47 47 46 44 43 43 42 41 41 39 38 37 36 35 34 32 31 30 30 29 29 28 28 27 26 25 24 25 25 24 24
51 51 52 53 52 53 53 52 52 51 51 51 49 48 47 47 46 45 44 43 42 41 40 40 39 38 37 35 33 32 32 32 31 30 30 29 28 27 26 26 27 26 26
49 49 51 52 52 52 53 53 53 52 52 52 52 50 49 49 48 47 46 45 44 43 42 41 40 39 39 38 36 35 34 34 33 32 32 31 31 29 28 28 28 28 28
50 50 51 51 51 52 53 53 53 53 53 53 53 52 51 51 50 49 48 47 46 45 43 42 41 40 40 40 39 38 37 36 35 35 34 34 33 32 31 30 31 30 30
51 50 51 53 53 53 54 54 54 55 54 55 55 54 53 52 52 51 49 48 48 46 44 42 41 40 41 42 41 40 40 39 38 38 37 36 35 34 33 33 33 33 33
52 52 53 54 55 55 55 55 54 55 56 56 56 56 55 54 53 52 51 49 49 48 45 43 42 41 41 43 42 42 41 41 41 40 39 38 37 37 36 35 36 35 35
53 53 54 55 55 56 56 55 55 55 56 56 57 57 56 55 55 54 52 51 50 49 48 45 44 43 43 43 43 43 43 43 42 41 40 40 40 39 38 38 38 37 37
53 53 54 55 55 56 56 56 55 56 56 56 56 57 57 56 55 56 54 53 52 51 50 48 46 46 45 44 44 44 43 43 43 42 42 42 41 41 40 40 40 40 39
53 52 52 53 54 55 56 57 56 55 56 56 56 57 57 56 56 55 54 54 53 52 51 50 49 48 48 47 46 46 45 45 45 44 44 43 43 42 42 42 41 42 41
52 53 52 52 54 55 56 56 56 56 56 55 56 57 58 58 57 56 55 55 54 53 52 52 51 50 49 48 48 47 47 46 46 46 46 45 44 44 43 43 43 43 43
51 53 53 54 54 54 55 55 56 57 57 57 57 57 57 58 57 58 57 55 55 54 53 52 53 52 50 49 49 49 48 47 47 48 48 47 47 46 45 44 44 44 43
49 50 51 51 52 53 54 55 55 55 56 57 58 58 58 59 58 58 57 56 55 55 54 54 54 52 50 50 49 49 50 50 49 49 49 48 48 48 47 46 45 45 44
47 48 48 46 47 50 51 53 55 55 55 56 56 57 57 58 58 57 55 55 55 55 55 54 54 54 53 53 53 52 51 51 50 50 50 50 50 49 49 48 47 46 46
47 48 49 48 48 48 50 52 53 55 56 57 57 57 57 58 58 57 56 55 55 56 56 56 55 54 54 54 54 53 52 51 51 51 52 51 51 50 50 50 49 49 49
47 48 48 48 48 49 50 50 52 54 54 55 55 56 57 57 56 57 58 57 56 57 57 56 56 55 55 55 56 56 54 53 53 52 53 52 51 52 52 52 51 51 50
46 47 48 48 47 48 49 50 51 52 53 53 54 55 56 56 57 57 58 58 58 58 58 58 58 57 57 56 56 56 55 55 54 53 53 53 53 53 53 52 52 52 52
Wind_Direction
244 244 243 242 243 243 243 241 241 241 240 239 239 240 243 243 244 247 248 250 252 253 254 255 255 255 257 258 261 262 263 267 278 288 294 303 308 310 314 318 323 322 327
242 242 243 242 242 243 243 243 241 242 241 241 240 241 242 243 244 246 248 249 252 253 254 255 255 254 255 256 257 258 260 263 269 278 284 291 296 300 303 306 308 311 316
240 241 241 241 241 242 242 243 242 242 242 242 242 242 243 243 245 247 249 249 250 252 254 254 254 253 253 253 253 255 256 260 265 272 278 283 287 290 295 298 298 301 306
240 240 240 241 241 242 243 243 243 242 242 243 244 244 245 245 246 247 249 249 249 250 252 252 253 252 251 251 252 253 255 258 262 267 272 277 279 282 287 291 292 294 298
240 240 240 240 241 241 242 243 242 241 241 242 244 244 245 246 247 247 248 248 248 249 251 250 251 251 251 250 251 253 255 258 260 264 269 273 275 277 281 284 287 290 293
241 240 240 240 240 241 241 242 242 241 242 242 244 244 246 246 247 248 248 248 249 248 249 249 249 250 250 250 252 254 256 257 258 261 265 269 272 275 279 283 284 286 289
241 241 240 240 240 240 241 241 242 241 242 243 244 245 246 247 246 247 247 248 248 247 247 247 248 249 249 250 252 254 255 256 258 259 261 265 270 273 276 280 282 284 286
242 241 241 240 240 240 241 242 243 242 242 243 244 245 245 246 246 246 246 247 247 246 246 247 248 249 249 250 251 253 255 256 257 258 260 263 267 271 274 277 279 283 285
242 241 241 241 241 241 241 242 243 243 243 243 244 244 245 245 246 247 245 245 245 246 247 248 248 250 250 250 251 252 254 256 257 257 258 260 264 269 273 276 278 280 282
242 241 241 241 241 241 242 243 243 243 243 244 244 243 245 246 246 247 246 245 245 246 247 247 248 249 250 249 251 252 252 254 256 257 257 259 262 266 270 275 277 277 279
242 242 242 242 242 242 242 243 244 244 243 243 243 243 243 244 245 246 246 246 245 246 247 246 246 248 249 249 251 252 253 253 255 257 258 260 262 265 268 273 276 277 279
242 242 242 242 243 243 243 243 244 245 244 242 242 242 243 244 244 245 246 246 246 246 246 246 246 247 248 248 249 251 253 253 254 255 257 260 262 264 267 271 273 275 277
243 242 243 243 244 244 243 243 244 244 243 242 242 242 242 243 244 244 245 246 246 246 246 246 246 246 247 248 249 250 252 253 253 255 257 259 261 264 266 269 270 272 275
245 244 244 245 244 244 244 244 243 243 242 241 241 241 242 242 243 243 244 245 246 246 246 246 246 246 247 248 249 250 250 252 253 255 257 258 261 263 264 267 270 272 274
245 245 246 246 246 244 244 244 244 242 241 241 240 240 241 242 242 242 243 244 245 245 245 246 247 247 248 249 250 250 250 251 252 254 256 259 260 262 263 266 269 271 273
245 245 245 246 247 246 245 244 244 243 242 241 240 240 241 242 241 242 243 244 244 245 245 245 245 247 248 249 249 250 250 251 251 253 256 257 259 261 262 266 269 271 273
247 246 245 246 246 247 246 246 245 244 242 242 240 239 240 241 242 242 242 243 244 244 244 244 245 246 247 247 249 250 251 251 252 252 254 256 258 260 262 265 268 270 272
247 248 247 246 246 247 246 246 246 244 243 242 241 240 240 241 242 242 242 243 243 244 245 245 245 246 247 247 248 250 251 251 251 252 254 257 258 260 262 264 267 269 271
248 248 247 247 246 246 246 246 245 244 243 242 241 241 240 240 242 242 242 243 244 244 245 246 246 247 247 248 248 249 251 252 253 253 255 256 258 260 261 263 265 268 269
249 248 248 248 247 246 245 244 244 242 241 241 241 241 240 241 242 243 244 244 244 244 244 246 247 247 248 248 249 250 252 253 254 255 256 256 257 259 261 263 265 267 269
251 250 249 250 248 247 245 244 243 241 241 240 240 240 240 241 242 244 244 243 244 244 244 245 247 248 247 248 249 251 252 254 255 256 256 257 257 257 259 262 265 266 268
250 250 250 250 249 247 245 243 242 241 240 240 240 239 241 242 243 243 242 243 244 245 246 245 246 247 248 249 249 251 253 254 256 257 257 257 256 257 259 261 262 264 267
250 248 248 249 247 245 244 244 243 241 240 240 240 240 240 242 242 243 242 244 244 245 246 246 247 248 249 250 251 252 254 255 256 256 257 257 257 257 258 259 262 264 266
249 247 247 248 246 243 243 243 242 241 240 239 239 239 240 241 242 242 243 243 244 245 245 246 247 248 249 251 252 252 254 255 256 257 257 258 258 258 258 260 262 264 266
250 249 248 248 246 244 243 244 243 242 241 241 241 241 241 241 242 243 243 243 244 245 245 245 246 247 249 250 252 253 254 255 256 256 257 257 258 258 260 261 263 264 266
250 250 248 247 247 246 245 245 243 241 241 241 241 242 243 244 243 244 244 244 244 244 245 245 246 247 248 249 251 252 253 255 256 256 256 257 258 259 260 261 263 264 266